Content
SEND FEEDBACK

Daily
Averages
Monthly
Summary
United States of America

AGAT, GUAM


Home > North America > United States > Guam
Elevation: 364 feet     Latitude: 13 33N     Longitude: 144 50E

WEATHER
 
SELECT A DAY
Number of Records: 214,775;   Date Range: 1/1/95 - 11/21/14
 
SHARE

PRINT THIS DATA

[ ← Previous Day ]
WEATHER ALMANAC - FEBRUARY 4, 2013
[ Next Day → ]
[ °C ]   °F
Weather ElementAverageHighLow
Temperature80.6 °F84.9 °F (11:54 am)77 °F (3:54 am)
Dewpoint70.6 °F73.4 °F (4:27 pm)69.1 °F (11:54 am)
Humidity72 %82 % (3:54 am)59 % (11:54 am)
Barometer29.97 in30.03 in (11:17 am)29.92 in (3:54 pm)
Wind Speed15 mph20.7 mph (9:54 am)
Wind Gust29.9 mph (9:54 am)
Weather ElementAverage
Visibility10 mi
Wind DirectionENE (71.6 °)

Weather ElementTotal
Precipitation---
Cooling Degree Days16 (Base 65)
Growing Degree Days31 (Base 50)
Averaged from 25 records on February 4, 2013
WEATHER CONDITIONS BREAKOUT
WIND DIRECTION BREAKOUT
WEATHER BY HOUR - FEBRUARY 4, 2013
[ °C ]   °F
Local TimeTemperatureDewpointHumidityBarometerVisibilityWind DirectionWind SpeedGust SpeedPrecipitationEventsConditions
1:54 AM78.1 °F70.0 °F76 %29.97 in10.0 miENE (70°)10.4 mphClear
2:54 AM78.1 °F70.0 °F76 %29.96 in10.0 miENE (70°)12.7 mphClear
3:54 AM77.0 °F71.1 °F82 %29.95 in10.0 miENE (70°)11.5 mph0.00 inPartly Cloudy
4:54 AM78.1 °F70.0 °F76 %29.95 in10.0 miENE (60°)15.0 mphClear
5:54 AM78.1 °F70.0 °F76 %29.96 in10.0 miENE (70°)15.0 mphClear
6:54 AM78.1 °F70.0 °F76 %29.99 in10.0 miENE (70°)12.7 mphClear
7:54 AM80.1 °F70.0 °F71 %30.00 in10.0 miENE (70°)13.8 mphPartly Cloudy
8:54 AM82.0 °F70.0 °F67 %30.02 in10.0 miENE (60°)19.6 mph26.5 mphClear
9:54 AM82.9 °F70.0 °F65 %30.02 in10.0 miENE (70°)20.7 mph29.9 mphPartly Cloudy
10:54 AM82.9 °F71.1 °F67 %30.01 in10.0 miENE (70°)19.6 mph26.5 mphMostly Cloudy
11:17 AM82.4 °F69.8 °F66 %30.03 in10.0 miEast (90°)20.7 mph27.6 mphMostly Cloudy
11:54 AM84.9 °F69.1 °F59 %30.00 in10.0 miEast (80°)16.1 mph23.0 mphScattered Clouds
12:54 PM84.0 °F70.0 °F63 %29.97 in10.0 miEast (80°)17.3 mph28.8 mphMostly Cloudy
1:54 PM84.0 °F69.1 °F61 %29.96 in10.0 miENE (70°)17.3 mph26.5 mphClear
2:54 PM84.9 °F70.0 °F61 %29.93 in10.0 miENE (70°)17.3 mph25.3 mphMostly Cloudy
3:54 PM84.0 °F69.1 °F61 %29.92 in10.0 miEast (80°)18.4 mphPartly Cloudy
4:27 PM80.6 °F73.4 °F79 %29.95 in10.0 miENE (70°)13.8 mph0.00 inMostly Cloudy
4:41 PM80.6 °F73.4 °F79 %29.95 in10.0 miENE (70°)18.4 mph0.00 inScattered Clouds
4:54 PM80.1 °F72.0 °F76 %29.93 in10.0 miENE (60°)20.7 mph0.00 inPartly Cloudy
5:54 PM80.1 °F70.0 °F71 %29.94 in10.0 miENE (70°)13.8 mphPartly Cloudy
6:54 PM79.0 °F71.1 °F77 %29.95 in10.0 miENE (70°)11.5 mphClear
8:54 PM78.1 °F71.1 °F79 %29.99 in10.0 miEast (80°)8.1 mphClear
9:54 PM78.1 °F71.1 °F79 %30.00 in10.0 miENE (70°)9.2 mphPartly Cloudy
10:54 PM79.0 °F72.0 °F79 %30.00 in10.0 miENE (70°)11.5 mphMostly Cloudy
11:54 PM79.0 °F71.1 °F77 %30.00 in10.0 miEast (80°)10.4 mphMostly Cloudy
Hourly data recorded from PGUM, located miles away from Agat, Guam







STORIES FROM OUR PARTNERS